Weather in Kolding

Denmark     55°29′44″N   9°28′24″E
temp.,
°C
wind,
m/s
gust,
m/s
humid.,
%
clouds,
%
prec.,
mm/h
press.,
hPa
HPBL,
m
6 march, sat
sat601:00−1w37860 0.0 1030158
04:00+2w5118782 0.0 1028485
07:00+2wnw5139376 0.1 1028509
10:00+5wnw8116622 0.0 10281067
13:00+6wnw9126433 0.0 10281110
16:00+4wnw91269100 0.0 10271200
19:00+2w7137894 0.0 1026768
22:00+2w8147349 0.0 1024872
7 march, sun
sun701:00+1w7148539 0.0 1023723
04:00+2w8138199 0.0 1020840
07:00+3w8148199 0.0 1019688
10:00+4wnw8137999 0.0 1018865
13:00+4wnw7118899 0.4 1019803
16:00+5nnw4655100 0.1 10181058
19:00+1ene476488 0.1 1020210
22:00−1ne356867 0.0 1021144
8 march, mon
mon801:00−1nne356362 0.0 1023112
04:00−1nne236410 0.0 102354
07:00−1nne226449 0.0 102429
10:00+2e2256100 0.0 1025324
13:00+4se334588 0.0 10251047
16:00+3sse454662 0.0 1023809
19:00−1sse366642 0.0 1023118
22:00−1sse48690 0.0 1023202
9 march, tue
tue901:00−1s496842 0.0 1022277
04:00−2sse486432 0.0 1020231
07:00−2sse356845 0.0 1020133
10:00+2sse466185 0.0 1020463
13:00+4sse446171 0.0 1019610
16:00+3sse346926 0.0 1018337
19:00−1sse47821 0.0 1019138
22:00−1sse34877 0.0 101972
10 march, wed
wed1001:00+1ssw389543 0.0 1018212
04:00+2s5995100 0.1 1016269
07:00+2s5129699 0.1 1014348
10:00+4ssw81384100 0.0 1012788
13:00+6ssw101772100 0.0 10081349
16:00+4ssw111895100 6.0 1005979
19:00+5sw91691100 9.8 1003756
22:00+5sw61293100 0.3 1002537